Location: Heisede
(52.2582°N, 9.8523°E)
Time: 14:51:32
(UTC+00:00)

IRS-1C - Pass Details

Date: 13 January 2026
Orbit: 813 x 814 km, 99.0° (Epoch: 16 February)

Event Time Altitude Azimuth Distance (km) Brightness Sun altitude
Rises 06:15:52 0° 16° (NNE) 3,352 7.3 -10.0°
Reaches altitude 10° 06:18:13 10° 18° (NNE) 2,416 6.5 -9.7°
Maximum altitude 06:23:35 82° 106° (ESE) 829 4.3 -8.9°
Drops below altitude 10° 06:28:54 10° 194° (SSW) 2,397 6.7 -8.2°
Sets 06:31:14 0° 195° (SSW) 3,325 7.4 -7.9°
